www.pogodaiklimat.ru

Погода и климат >> Архив погоды >> Россия >> Калининградская область >> Рыбачий


ПОГОДА в Рыбачьем

  • Прогноз погоды в Рыбачьем
  • Монитор погоды в Рыбачьем
  • Климат города

АРХИВ ПОГОДЫ в Рыбачьем

Время (UTC), дата Ветер
(напр.,м/с)
 
Видим.   Явления Облачность Т
(С)
Тd
(С)
f
(%)
Тe
(С)
Тes
(С)
Комфортность P
(гПа)
Po
(гПа)
Тmin
(С)
Tmax
(С)
R
(мм)
R24
(мм)
S
(см)
15 11.09 Ю 3-5
{7}
н/о н/о +18.9 +14.9 78 +20 +20 1016.7 1016.2
21 11.09 Ю 6-9
{12}
н/о н/о +18.2 +13.9 76 +18 +18 1014.7 1014.2
00 12.09 ЮЗ 6-13
{15}
н/о н/о +18.8 +16.6 87 +19 +19 1014.1 1013.6
03 12.09 ЮЗ 4-8
{15}
н/о н/о +17.7 +16.3 92 +17 +17 1014.2 1013.8 +17.5
06 12.09 ЮЗ 4-8
{12}
н/о н/о +18.4 +15.8 85 +19 +19 1014.4 1013.9 +17.5
09 12.09 ЮЗ 4-7
{10}
н/о н/о +17.7 +16.9 95 +17 +17 1014.8 1014.3
12 12.09 З 4-8
{9}
н/о н/о +17.4 +15.6 89 +17 +17 1015.1 1014.7
15 12.09 З 5-9
{11}
н/о н/о +16.8 +14.0 84 +16 +16 1015.5 1015.0
18 12.09 З 5-9
{11}
н/о н/о +17.2 +12.9 76 +17 +17 1016.0 1015.5 +18.5
21 12.09 З 5-10
{12}
н/о н/о +16.6 +11.9 74 +16 +16 1016.9 1016.5
00 13.09 З 4-8
{10}
н/о н/о +16.1 +10.5 69 +15 +15 1017.5 1017.1
03 13.09 З 3-6
{10}
н/о н/о +15.5 +8.8 64 +15 +15 1018.2 1017.7 +15.5
06 13.09 З 3-6
{8}
н/о н/о +15.9 +10.5 70 +15 +15 1018.9 1018.4 +15.2
09 13.09 З 4-7
{9}
н/о н/о +17.5 +9.7 60 +17 +17 1020.6 1020.1
12 13.09 З 3-6
{8}
н/о н/о +18.2 +9.4 56 +19 +19 1020.7 1020.2
15 13.09 З 3-5
{6}
н/о н/о +17.5 +8.8 57 +18 +18 1019.9 1019.4
18 13.09 З 2-2
{5}
н/о н/о +12.9 +9.5 80 +12 +12 1019.4 1018.9 +18.2
21 13.09 ЮЗ 1-2
{3}
н/о н/о +11.7 +8.7 82 +12 +12 1019.5 1019.0
00 14.09 З 2-3
{3}
н/о н/о +13.1 +9.1 77 +12 +12 1019.4 1019.0
03 14.09 ЮЗ 1-2
{3}
н/о н/о +10.3 +8.2 87 +10 +10 1019.3 1018.8 +10.2
06 14.09 Ю 3-6
{6}
н/о н/о +15.1 +12.0 82 +14 +14 1019.8 1019.3 +8.9
09 14.09 ЮЗ 3-5
{6}
н/о н/о +17.9 +10.4 61 +18 +18 1020.5 1020.0
12 14.09 З 2-4
{6}
н/о н/о +17.6 +11.1 66 +18 +18 1020.4 1019.9
15 14.09 З 2-4
{5}
н/о н/о +17.8 +11.5 67 +18 +18 1020.0 1019.5
21 14.09 Ю 1-1
{1}
н/о н/о +9.5 +9.1 97 +9 +9 1019.5 1019.0
00 15.09 ЮВ 2-4
{4}
н/о н/о +15.2 +12.8 86 +15 +15 1018.9 1018.4
03 15.09 ЮВ 3-5
{6}
н/о н/о +15.4 +12.1 81 +15 +15 1017.3 1016.8 +9.3
06 15.09 Ю 4-6
{6}
н/о н/о +15.7 +13.4 86 +15 +15 1016.8 1016.3 +9.3
09 15.09 Ю 4-7
{8}
н/о н/о +15.9 +13.5 86 +15 +15 1016.5 1016.1
12 15.09 Ю 4-5
{8}
н/о н/о +18.4 +14.1 76 +19 +19 1016.0 1015.6
15 15.09 З 2-4
{10}
н/о н/о +16.1 +13.3 83 +16 +16 1016.1 1015.6
18 15.09 ЮЗ 5-10
{13}
н/о н/о +14.5 +12.2 86 +13 +13 1016.8 1016.3 +19.6
21 15.09 З 4-8
{10}
н/о н/о +15.9 +10.5 70 +15 +15 1017.5 1017.0
00 16.09 З 4-9
{10}
н/о н/о +15.3 +9.2 67 +14 +14 1018.4 1017.9
03 16.09 З 4-7
{10}
н/о н/о +14.6 +8.8 68 +13 +13 1019.5 1019.0 +14.2
06 16.09 З 4-8
{8}
н/о н/о +15.3 +7.5 60 +14 +14 1021.1 1020.6 +14.2
09 16.09 З 4-7
{9}
н/о н/о +16.8 +8.3 57 +16 +16 1022.4 1021.9
12 16.09 З 4-7
{8}
н/о н/о +16.9 +8.5 58 +16 +16 1022.7 1022.2
15 16.09 З 3-5
{7}
н/о н/о +16.1 +9.8 66 +16 +16 1022.4 1021.9
18 16.09 ЮЗ 1-3
{5}
н/о н/о +15.0 +9.7 71 +16 +16 1022.4 1021.9 +17.7
21 16.09 Ю 3-5
{6}
н/о н/о +14.8 +11.3 80 +14 +14 1021.7 1021.2
00 17.09 Ю 4-6
{8}
н/о н/о +14.7 +11.4 81 +13 +13 1021.0 1020.5
03 17.09 Ю 5-7
{8}
н/о н/о +14.2 +11.1 82 +12 +12 1020.0 1019.5 +13.7
06 17.09 Ю 6-9
{10}
н/о н/о +14.7 +11.0 78 +13 +13 1019.1 1018.7 +13.7
09 17.09 Ю 5-10
{11}
н/о н/о +19.0 +12.1 64 +20 +20 1018.5 1018.0
12 17.09 ЮЗ 5-9
{11}
н/о н/о +21.3 +12.7 58 +24 +24 комфорт 1017.9 1017.4
15 17.09 ЮЗ 3-7
{11}
н/о н/о +19.3 +13.0 67 +21 +21 комфорт 1017.9 1017.5
18 17.09 ЮЗ 3-6
{8}
н/о н/о +18.2 +13.5 74 +19 +19 1018.2 1017.7 +21.4

 

Местоположение метеостанции Рыбачий (Калининградская область, Россия): широта 55.16 долгота 20.84 высота над уровнем моря 3 м.

В архиве по умолчанию представлена погода в Рыбачьем за последнюю неделю. Архивные данные за месяц целиком и за предыдущие месяцы, начиная с января 2011 года, Вы можете получить, выбрав интересующий диапазон дат из раскрывающегося списка и нажав кнопку "Ввод!".


*Определитесь, кто Вы:
робот инопланетянин человек

Внимание! Время в таблицах - всемирное. Для получения местного времени необходимо прибавить поправку, которая в Рыбачьем равна 2 ч.

Смотрите также архив погоды в соседних городах и на ближайших метеорологических станциях:

Погода в Nidoje (Литва) (21 км)
Погода в ?ilut? (Литва) (44 км)
Погода в Пионерском (Калининградская область, Россия) (46 км)
Погода в Калининграде (Калининградская область, Россия) (53 км)
Погода в Рыбном Порту (Калининградская область, Россия) (57 км)
Погода в Klaip?da (Литва) (65 км)
Погода в Советске (Калининградская область, Россия) (70 км)
Погода в Балтийске (Калининградская область, Россия) (84 км)
Погода в Черняховске (Калининградская область, Россия) (85 км)
Погода в Железнодорожном (Калининградская область, Россия) (93 км)

Пояснения к столбцам:

Ветер - указаны скорость ветра в м/с - средняя за 10 мин, порывы в срок и между сроками (в фигурных скобках) и направление, откуда дует ветер: С - северный, СВ - северо-восточный, В - восточный, ЮВ - юго-восточный, Ю - южный, ЮЗ - юго-западный, З - западный, СЗ - северо-западный.
Видимость - горизонтальная дальность видимости в метрах или километрах. При видимости от 1 до 10 км при отсутствии осадков обычно наблюдается дымка, при ухудшении видимости до 1 км и менее - туман. В сухую погоду видимость может ухудшаться дымом, пылью или мглою.
Явления - указаны атмосферные явления, наблюдавшиеся в срок или в последний час перед сроком; фигурными скобками обозначены явления, наблюдавшиеся между сроками (за 1-3 часа до срока); квадратными скобками обозначены град или гололедные отложения с указанием их диаметра в мм.
Облачность - указаны через наклонную черту общая и нижняя облачность в баллах и высота нижней границы облаков в метрах; квадратными скобками обозначены формы облаков: Ci - перистые, Cs - перисто-слоистые, Cc - перисто-кучевые, Ac - высококучевые, As - высокослоистые, Sc - слоисто-кучевые, Ns - слоисто-дождевые, Cu - кучевые, Cb - кучево-дождевые. Подробнее классификацию облаков см. в Атласе облаков (PDF).
T - Температура воздуха - температура, измеренная на высоте 2 м над землей.
Td - Температура точки росы - температура, при понижении до которой содержащийся в воздухе водяной пар достигнет насыщения.
f - Относительная влажность воздуха - влажноcть воздуха, измеренная на высоте 2 м над землей.
Te - Эффективная температура - температура, которую ощущает одетый по сезону человек в тени. Характеристика душности погоды. При расчете учитывается влияние влажности воздуха и скорости ветра на теплоощущения человека.
Tes - Эффективная температура на солнце - температура, которую ощущает человек, с поправкой на солнечный нагрев. Характеристика знойности погоды. Зависит от высоты солнца над горизонтом, облачности и скорости ветра. Ночью, в пасмурную погоду, а также при ветре 12 м/с и более поправка равна нулю.
P - Атмосферное давление - приведенное к уровню моря атмосферное давление.
Po - Атмосферное давление - измеренное на уровне метеостанции атмосферное давление.
Tmin - Минимальная температура - минимум температуры воздуха на высоте 2 м над землей.
Tmax - Максимальная температура - максимум температуры воздуха на высоте 2 м над землей.
R - Количество осадков - Количество выпавших осадков за период времени, мм. При наведении курсора мыши на число - период времени, за который выпало указанное количество осадков.
R24 - Количество осадков - Количество выпавших осадков за 24 часа, мм.
S - Снежный покров - Высота снежного покрова, см. При наведении курсора мыши на число - состояние снежного покрова и степень покрытия местности в баллах.